Tracking 22779 objects as of 12-Apr-2021
HD Live streaming from Space Station
objects crossing your sky now

WESTFORD NEEDLES

Track WESTFORD NEEDLES now!
10-day predictions
WESTFORD NEEDLES is classified as:


NORAD ID: 18615
Int'l Code: 1963-014DK
Perigee: 2,830.4 km
Apogee: 4,395.2 km
Inclination: 86.9 °
Period: 165.5 minutes
Semi major axis: 9983 km
RCS: 0.075 m2 (small)
Launch date: May 9, 1963
Source: United States (US)
Launch site: AIR FORCE WESTERN TEST RANGE (AFWTR)
aabbcc
Your satellite tracking list
Your tracking list is empty




NASA's NSSDC Master Catalog

Two Line Element Set (TLE):
1 18615U 63014DK  21098.65324035 -.00000083  00000-0 -27424-1 0  9996
2 18615  86.9087 331.2389 0783659 271.6057 103.5827  8.70279129878415
Source of the keplerian elements: AFSPC